Punta Gorda, FL

2:33 PM EST on January 22, 2018 (GMT -0500)
Charlotte County

Weather History for KPGD - December, 2011

Change the Weather History Date:

Thursday, December 22, 2011

  Actual Average Record
Temperature  
Mean Temperature 68 °F -  
Max Temperature 82 °F 71 °F 86 °F (2006)
Min Temperature 55 °F 50 °F 39 °F (2012)
Cooling Degree Days 4    
Growing Degree Days 18 (Base 50)    
Moisture  
Dew Point 59 °F    
Average Humidity 84    
Maximum Humidity 100    
Minimum Humidity 49    
Precipitation  
Precipitation 0.01 in - - ()
Sea Level Pressure  
Sea Level Pressure 30.13 in    
Wind  
Wind Speed 4 mph (ESE)    
Max Wind Speed 14 mph    
Max Gust Speed -    
Visibility 7 miles    
Events      
Averages and records for this station are not official NWS values.
T = Trace of Precipitation, MM = Missing Value Source: NWS Daily Summary

Daily Weather History Graph

Daily Weather History Graph

Search for Another Location

Airport or City:

Trip Planner

Search our weather history database for the weather conditions in past years. The results will help you decide how hot, cold, wet, or windy it might be!

Date:

Astronomy

Dec. 22, 2011 Rise Set
Actual Time 7:13 AM EST 5:39 PM EST
Civil Twilight 6:47 AM EST 6:05 PM EST
Nautical Twilight 6:18 AM EST 6:34 PM EST
Astronomical Twilight 5:50 AM EST 7:02 PM EST
Moon 4:56 AM EST 3:48 PM EST
Length of Visible Light 11h 17m
Length of Day
10h 26m
Waning Crescent, 6% of the Moon is Illuminated
Dec 22
Waning Crescent
Dec 24
New
Jan 1
First Quarter
Jan 9
Full
Jan 16
Last Quarter

Hourly Weather History & Observations

Time (EST) Temp. Heat Index Dew Point Humidity Pressure Visibility Wind Dir Wind Speed Gust Speed Precip Events Conditions
12:53 AM 61.0 °F - 59.0 °F 93% 30.12 in 10.0 mi ESE 5.8 mph - N/A   Clear
1:53 AM 61.0 °F - 59.0 °F 93% 30.12 in 10.0 mi Calm Calm - N/A   Clear
2:22 AM 57.2 °F - 55.4 °F 94% 30.12 in 2.5 mi ESE 3.5 mph - N/A   Scattered Clouds
2:29 AM 57.2 °F - 55.4 °F 94% 30.12 in 10.0 mi Calm Calm - N/A   Scattered Clouds
2:53 AM 57.0 °F - 55.0 °F 93% 30.12 in 10.0 mi East 3.5 mph - N/A   Clear
3:44 AM 55.4 °F - 53.6 °F 94% 30.11 in 2.0 mi East 3.5 mph - 0.01 in   Clear
3:53 AM 55.0 °F - 54.0 °F 96% 30.12 in 7.0 mi ESE 4.6 mph - 0.01 in   Clear
4:53 AM 55.9 °F - 54.0 °F 93% 30.12 in 2.0 mi Calm Calm - N/A   Clear
5:00 AM 55.4 °F - 53.6 °F 94% 30.12 in 1.0 mi East 3.5 mph - N/A   Clear
5:14 AM 55.4 °F - 53.6 °F 94% 30.12 in 4.0 mi East 3.5 mph - N/A   Clear
5:53 AM 55.9 °F - 55.0 °F 97% 30.12 in 10.0 mi East 5.8 mph - N/A   Clear
6:22 AM 55.4 °F - 53.6 °F 94% 30.14 in 2.0 mi Calm Calm - N/A   Clear
6:36 AM 55.4 °F - 55.4 °F 100% 30.14 in 1.5 mi NE 4.6 mph - N/A   Mostly Cloudy
6:53 AM 55.9 °F - 55.0 °F 97% 30.15 in 0.8 mi ENE 3.5 mph - N/A   Mist
7:03 AM 55.4 °F - 55.4 °F 100% 30.15 in 1.2 mi ENE 3.5 mph - N/A   Mostly Cloudy
7:13 AM 55.4 °F - 55.4 °F 100% 30.15 in 3.0 mi East 4.6 mph - N/A   Scattered Clouds
7:53 AM 60.1 °F - 59.0 °F 96% 30.16 in 10.0 mi ESE 6.9 mph - N/A   Clear
8:53 AM 66.0 °F - 64.9 °F 96% 30.17 in 10.0 mi ESE 8.1 mph - N/A   Clear
9:53 AM 73.9 °F - 66.0 °F 76% 30.17 in 10.0 mi SE 11.5 mph - N/A   Clear
10:53 AM 78.1 °F - 64.9 °F 64% 30.17 in 10.0 mi SSE 12.7 mph - N/A   Clear
11:53 AM 82.0 °F 83.1 °F 63.0 °F 52% 30.15 in 10.0 mi South 13.8 mph - N/A   Partly Cloudy
12:53 PM 82.0 °F 83.0 °F 62.1 °F 51% 30.12 in 10.0 mi Variable 6.9 mph - N/A   Mostly Cloudy
1:53 PM 81.0 °F 81.9 °F 62.1 °F 52% 30.10 in 10.0 mi SSE 6.9 mph - N/A   Scattered Clouds
3:53 PM 82.0 °F 82.7 °F 61.0 °F 49% 30.08 in 10.0 mi South 8.1 mph - N/A   Clear
4:53 PM 81.0 °F 82.2 °F 63.0 °F 54% 30.08 in 10.0 mi SSW 8.1 mph - N/A   Partly Cloudy
5:53 PM 73.9 °F - 64.9 °F 73% 30.09 in 10.0 mi South 6.9 mph - N/A   Clear
6:53 PM 72.0 °F - 64.9 °F 78% 30.11 in 10.0 mi South 4.6 mph - N/A   Mostly Cloudy
7:53 PM 73.0 °F - 64.9 °F 76% 30.12 in 10.0 mi SSW 3.5 mph - N/A   Overcast
8:53 PM 73.0 °F - 66.0 °F 79% 30.14 in 10.0 mi Calm Calm - N/A   Overcast
9:53 PM 71.1 °F - 66.0 °F 84% 30.16 in 10.0 mi Calm Calm - N/A   Mostly Cloudy
10:53 PM 66.9 °F - 64.0 °F 90% 30.16 in 10.0 mi Calm Calm - N/A   Mostly Cloudy
11:53 PM 64.9 °F - 63.0 °F 93% 30.16 in 10.0 mi SE 3.5 mph - N/A   Clear